Flag for Poland Weather past 2 weeks in Dąbrowa Górnicza, Poland

Now
68 °F

Rain showers. Partly sunny.


Feels Like: 68 °F
Forecast: 58 / 81 °F
Wind: 5 mph from East

Location: Katowice Airport

Current Time: Jul 25, 2014 at 11:22:32 AM

Latest Report: Jul 25, 2014 at 11:00 AM


Visibility: N/A

Pressure: 29.98 "Hg

Humidity: 88%

Dew point: 64 °F

Location of Dąbrowa GórniczaLocation

Historic Weather in Dąbrowa Górnicza — Graph

°F

Dąbrowa Górnicza temperature yesterday

Maximum temperature yesterday: 66 °F (at 5:00 PM)
Minimum temperature yesterday: 59 °F (at 12:00 AM)
Average temperature yesterday: 63 °F

Past Weeks' High & Low Weather Summary

 TemperatureHumidityPressure
High88 °F (Jul 20, 3:00 PM)100% (Jul 10, 11:00 PM)30.15 "Hg (Jul 10, 11:00 PM)
Low54 °F (Jul 13, 2:00 AM)30% (Jul 14, 4:00 PM)29.74 "Hg (Jul 10, 10:00 AM)
Average69 °F72%29.94 "Hg
* Reported Jul 10 10:00 AM — Jul 25 10:00 AM, Dąbrowa Górnicza, Weather by CustomWeather, © 2014

Note: Actual official high and low records may vary slightly from our data, if they occured in-between our weather recording intervals... More about our weather records

Advertising

Dąbrowa Górnicza weather history for previous 24 hours

 ConditionsComfort  
Time TempWeatherWind HumidityBarometerVisibility
10:00 AM
Jul 25
66 °FBroken clouds.5 mph88%29.98 "HgN/A
9:30 AM64 °FBroken clouds.5 mph94%29.95 "Hg5 mi
9:00 AM64 °FFog.7 mph94%29.95 "Hg3 mi
8:30 AM64 °FFog.8 mph94%29.95 "Hg1 mi
8:00 AM64 °FFog.7 mph94%29.95 "Hg1 mi
7:30 AM64 °FFog.7 mph94%29.95 "Hg2 mi
7:00 AM63 °FFog.7 mph100%29.95 "Hg2 mi
6:30 AM63 °FFog.6 mph100%29.95 "Hg2 mi
6:00 AM63 °FFog.6 mph100%29.95 "Hg2 mi
5:30 AM63 °FFog.5 mph100%29.95 "Hg2 mi
5:00 AM63 °FFog.3 mph100%29.95 "Hg2 mi
4:30 AM63 °FFog.5 mph100%29.92 "Hg3 mi
4:00 AM63 °FFog.5 mph100%29.92 "Hg3 mi
3:30 AM63 °FPartly cloudy.5 mph100%29.92 "Hg4 mi
3:00 AM63 °FPartly cloudy.5 mph100%29.92 "Hg4 mi
2:30 AM63 °FPartly cloudy.6 mph100%29.92 "Hg4 mi
2:00 AM63 °FPartly cloudy.7 mph100%29.92 "Hg4 mi
1:30 AM63 °FPartly cloudy.7 mph100%29.92 "Hg4 mi
1:00 AM63 °FPassing clouds.3 mph100%29.92 "Hg4 mi
12:30 AM63 °FPassing clouds.3 mph100%29.92 "Hg4 mi
12:00 AM63 °FFog.3 mph100%29.92 "Hg3 mi
11:30 PM
Jul 24
63 °FPassing clouds.5 mph100%29.92 "Hg4 mi
11:00 PM63 °FClear.7 mph100%29.92 "Hg4 mi
10:30 PM64 °FFog.7 mph94%29.92 "Hg3 mi
10:00 PM64 °FFog.5 mph94%29.92 "Hg3 mi
9:30 PM64 °FScattered clouds.6 mph94%29.92 "Hg4 mi
9:00 PM64 °FBroken clouds.5 mph100%29.92 "Hg5 mi
8:30 PM64 °FBroken clouds.3 mph94%29.92 "HgN/A
8:00 PM64 °FBroken clouds.5 mph94%29.92 "HgN/A
7:30 PM66 °FSprinkles. Scattered clouds.6 mph94%29.92 "HgN/A
7:00 PM66 °FPassing clouds.5 mph88%29.89 "HgN/A
6:30 PM66 °FScattered clouds.6 mph88%29.89 "HgN/A
6:00 PM66 °FScattered clouds.7 mph88%29.89 "HgN/A
5:30 PM66 °FPassing clouds.7 mph88%29.89 "HgN/A
5:00 PM66 °FScattered clouds.6 mph88%29.89 "HgN/A
4:30 PM64 °FBroken clouds.7 mph88%29.89 "HgN/A
4:00 PM64 °FScattered clouds.9 mph94%29.89 "HgN/A
3:30 PM64 °FBroken clouds.8 mph88%29.89 "HgN/A
3:00 PM64 °FPartly sunny.8 mph94%29.89 "HgN/A
2:30 PM63 °FBroken clouds.8 mph100%29.89 "Hg5 mi
2:00 PM63 °FLight rain. Fog.10 mph100%29.89 "Hg3 mi
1:30 PM64 °FLight rain. Fog.10 mph94%29.89 "Hg2 mi
1:00 PM64 °FLight rain. Fog.10 mph94%29.86 "Hg3 mi
12:30 PM64 °FLight rain. Broken clouds.10 mph94%29.86 "HgN/A
12:00 PM64 °FBroken clouds.12 mph88%29.86 "HgN/A
11:30 AM64 °FBroken clouds.12 mph88%29.83 "HgN/A
11:00 AM64 °FBroken clouds.13 mph88%29.83 "HgN/A
Weather by CustomWeather, © 2014

See weather overviewHow to use our weather pages